Flag for U.S.A. Weather past 2 weeks in Cheyenne, Wyoming, U.S.A.

Now
59 °F

Clear.


Feels Like: 58 °F
Forecast: 61 / 86 °F
Wind: 6 mph from Southwest

Location: Cheyenne Airport

Current Time: Jul 4, 2015 at 6:07:30 AM

Latest Report: Jul 4, 2015 at 4:53 AM


Visibility: 10 mi

Pressure: 29.81 "Hg (23.92 "Hg at 1855m altitude)

Humidity: 84%

Dew point: 54 °F

Location of CheyenneLocation

Historic Weather in Cheyenne — Graph

°F

Cheyenne temperature yesterday

Maximum temperature yesterday: 80 °F (at 3:53 PM)
Minimum temperature yesterday: 55 °F (at 5:53 AM)
Average temperature yesterday: 68 °F

Past Weeks' High & Low Weather Summary

 TemperatureHumidityPressure
High88 °F (Jun 19, 11:53 AM)100% (Jun 19, 4:53 AM)30.25 "Hg (Jun 19, 4:53 AM)
Low52 °F (Jun 22, 4:53 AM)16% (Jun 19, 11:53 AM)29.67 "Hg (Jun 19, 11:53 PM)
Average69 °F57%29.94 "Hg
* Reported Jun 19 4:53 AM — Jul 4 4:53 AM, Cheyenne, Weather by CustomWeather, © 2015

Note: Actual official high and low records may vary slightly from our data, if they occured in-between our weather recording intervals... More about our weather records

Advertising

Cheyenne weather history for previous 24 hours

 ConditionsComfort  
Time TempWeatherWind HumidityBarometerVisibility
4:53 AM
Sat, Jul 4
59 °FClear.6 mph84%29.81 "Hg10 mi
3:53 AM60 °FClear.6 mph80%29.81 "Hg10 mi
2:53 AM63 °FClear.5 mph73%29.82 "Hg10 mi
1:53 AM64 °FClear.3 mph70%29.82 "Hg10 mi
12:53 AM63 °FClear.9 mph73%29.85 "Hg10 mi
11:53 PM
Fri, Jul 3
63 °FClear.5 mph73%29.89 "Hg10 mi
10:53 PM67 °FClear.No wind63%29.91 "Hg10 mi
9:53 PM67 °FPassing clouds.7 mph66%29.91 "Hg10 mi
8:53 PM69 °FSunny.5 mph59%29.90 "Hg10 mi
7:53 PM72 °FSunny.6 mph43%29.87 "Hg10 mi
6:53 PM74 °FSunny.13 mph36%29.87 "Hg10 mi
5:53 PM74 °FThundershowers. Overcast.6 mph50%29.93 "Hg10 mi
4:53 PM76 °FPassing clouds.6 mph47%29.89 "Hg10 mi
3:53 PM80 °FPassing clouds.6 mph44%29.89 "Hg10 mi
2:53 PM78 °FScattered clouds.7 mph45%29.91 "Hg10 mi
1:53 PM77 °FSunny.7 mph50%29.93 "Hg10 mi
12:53 PM75 °FSunny.N/A50%29.94 "Hg10 mi
11:53 AM73 °FSunny.8 mph53%29.97 "Hg10 mi
10:53 AM71 °FPassing clouds.9 mph59%29.98 "Hg10 mi
9:53 AM68 °FPassing clouds.10 mph65%29.99 "Hg10 mi
8:53 AM65 °FSunny.3 mph73%30.01 "Hg10 mi
7:53 AM62 °FSunny.5 mph78%30.01 "Hg10 mi
6:53 AM58 °FPassing clouds.5 mph87%30.02 "Hg7 mi
Weather by CustomWeather, © 2015

See weather overviewHow to use our weather pages